Starlink 32789

operational
NORAD ID: 62529 Int'l Des: 2025-004 Owner: SPXS Country: US Constellation: starlink
LEOCIRCULAR

About Starlink 32789

Description loading...

Live Position

Loading 3D Globe...

Upcoming Passes

Altitude History

Altitude vs Time

uPlot chart will show altitude changes over time

Two-Line Element Set

1 62529U 25004U 25306.48893748 .00028703 00000-0 10474-2 0 9990
2 62529 43.0028 218.3463 0001479 285.3720 74.6968 15.27614596 47005
Epoch: Nov 2, 2025 • Age: 30 hours

Current Status

Altitude 481.6 km
Velocity 7.63 km/s
Sub-Earth Point 7.07°N, 88.23°W
Launch Date Jan 8, 2025
Age 0.8 years
Type internet

Technical Details

Classification Payload
Mass 730.00 kg
Dry Mass 700.00 kg
Total Mass 730.00 kg
Length 0.30 m
Diameter 4.10 m
Span 29.00 m
Shape Box + pan
Manufacturer SPXS
Bus Type Starlink V2M
Phase Status In Orbit
Owner/State SPXS/US

Large Constellations

Loading constellations...